User: anonymous   Login
Location: Geyikbay?r?
(36.8756°N, 30.4583°E)
Time: 01:57:36
(UTC+00:00)
Language:

ATLAS 5 CENTAUR R/B - Orbit

View from above orbital plane
View from above orbital plane
View from above satellite
View from above satellite

Ground track
Ground track

The orbit data is extracted from the following two-line orbital elements,

1 31702U 07027B   25348.34432977  .00013376  00000-0  66221-3 0  9990
2 31702  63.3130  81.9663 0503998  40.8610 322.9126 14.48363972 83976
Epoch (UTC): 14 December 2025 08:15:50
Eccentricity: 0.0503998
inclination: 63.3130°
perigee height: 373 km
apogee height: 1089 km
right ascension of ascending node: 81.9663°
argument of perigee: 40.8610°
revolutions per day: 14.48363972
mean anomaly at epoch: 322.9126°
orbit number at epoch: 8397

The dashed part of the orbit path shows where the satellite is in the earth's shadow,  

DLR